Home   Weather   Rockhampton   Past weeks
Flag for Australia

Past Weather in Rockhampton, Queensland, Australia — Yesterday and Last 2 Weeks

Now
82 °F

Passing clouds.


Feels Like: 83 °F
Forecast: 83 / 68 °F
Wind: 13 mph from East

Location: Rockhampton Airport

Current Time: Apr 9, 2020 at 1:41:56 pm

Latest Report: Apr 9, 2020 at 1:00 pm


Visibility: N/A

Pressure: 30.07 "Hg

Humidity: 48%

Dew Point: 61 °F

Location of RockhamptonLocation

Past Weather in Rockhampton — Graph

°F

Rockhampton Temperature Yesterday

Maximum temperature yesterday: 84 °F (at 12:30 pm)
Minimum temperature yesterday: 68 °F (at 1:30 am)
Average temperature yesterday: 76 °F

High & Low Weather Summary for the Past Weeks

 TemperatureHumidityPressure
High91 °F (Apr 4, 2:00 pm)94% (Mar 27, 2:30 am)30.12 "Hg (Mar 27, 2:30 am)
Low68 °F (Mar 26, 5:00 am)35% (Apr 8, 1:30 pm)29.71 "Hg (Apr 4, 4:00 pm)
Average77 °F70%29.95 "Hg
* Reported Mar 25 12:00 pm — Apr 9 12:00 pm, Rockhampton. Weather by CustomWeather, © 2020

Note: Actual official high and low records may vary slightly from our data, if they occured in-between our weather recording intervals... More about our weather records

Rockhampton Weather History for the Previous 24 Hours

Scroll right to see more
 ConditionsComfort  
Time TempWeatherWind HumidityBarometerVisibility
12:00 pm
Thu, Apr 9
82 °FMore clouds than sun.13 mph51%30.09 "HgN/A
11:30 am81 °FOvercast.15 mph54%30.09 "HgN/A
11:00 am81 °FScattered clouds.14 mph58%30.12 "HgN/A
10:00 am79 °FPassing clouds.12 mph61%30.12 "HgN/A
9:30 am77 °FPassing clouds.10 mph65%30.12 "HgN/A
9:00 am77 °FPassing clouds.9 mph69%30.12 "HgN/A
8:30 am73 °FPassing clouds.13 mph74%30.09 "HgN/A
8:00 am72 °FPartly sunny.12 mph78%30.09 "HgN/A
7:30 am72 °FScattered clouds.10 mph78%30.09 "HgN/A
7:00 am70 °FScattered clouds.8 mph78%30.09 "HgN/A
6:30 am68 °FSunny.8 mph83%30.07 "HgN/A
6:00 am68 °FPassing clouds.8 mph83%30.07 "HgN/A
5:30 am68 °FPassing clouds.7 mph83%30.07 "HgN/A
5:00 am68 °FClear.8 mph83%30.07 "HgN/A
4:30 am70 °FClear.10 mph78%30.04 "HgN/A
4:00 am70 °FClear.10 mph78%30.04 "HgN/A
3:30 am70 °FClear.10 mph83%30.04 "HgN/A
3:00 am70 °FClear.10 mph78%30.04 "HgN/A
2:30 am70 °FClear.10 mph78%30.04 "HgN/A
2:00 am72 °FClear.10 mph78%30.04 "HgN/A
1:30 am72 °FClear.7 mph78%30.04 "HgN/A
1:00 am72 °FClear.7 mph83%30.04 "HgN/A
12:30 am72 °FClear.7 mph78%30.04 "HgN/A
11:30 pm
Wed, Apr 8
72 °FClear.7 mph83%30.04 "HgN/A
11:00 pm73 °FClear.7 mph78%30.04 "HgN/A
10:30 pm73 °FClear.7 mph78%30.04 "HgN/A
10:00 pm73 °FClear.6 mph78%30.04 "HgN/A
9:30 pm73 °FClear.6 mph78%30.04 "HgN/A
9:00 pm73 °FClear.6 mph78%30.04 "HgN/A
8:30 pm75 °FClear.6 mph74%30.04 "HgN/A
8:00 pm75 °FClear.7 mph74%30.01 "HgN/A
7:30 pm75 °FClear.8 mph74%30.01 "HgN/A
7:00 pm75 °FClear.6 mph69%30.01 "HgN/A
6:30 pm77 °FClear.5 mph65%29.98 "HgN/A
6:00 pm77 °FClear.7 mph61%29.95 "HgN/A
5:30 pm79 °FSunny.7 mph54%29.95 "HgN/A
5:00 pm81 °FSunny.8 mph54%29.95 "HgN/A
4:30 pm82 °FSunny.8 mph51%29.95 "HgN/A
4:00 pm82 °FPassing clouds.9 mph51%29.95 "HgN/A
3:30 pm82 °FPassing clouds.8 mph51%29.95 "HgN/A
3:00 pm84 °FPassing clouds.10 mph51%29.95 "HgN/A
2:30 pm84 °FScattered clouds.9 mph40%29.92 "HgN/A
2:00 pm84 °FSunny.10 mph43%29.95 "HgN/A
1:30 pm84 °FSunny.10 mph35%29.95 "Hg10 mi
1:00 pm82 °FPassing clouds.10 mph42%29.95 "HgN/A
Weather by CustomWeather, © 2020

See weather overview

Advertising